Location: Unspecified
(9.1000°N, 0.0000°E)
Time: 00:47:28
(UTC+00:00)

ISS - Visible Passes

Search period start: 21 April 2019 00:00
Search period end: 01 May 2019 00:00
Orbit: 408 x 410 km, 51.6° (Epoch: 21 April)

Date Brightness Start Highest point End Pass type
(mag) Time Alt. Az. Time Alt. Az. Time Alt. Az.
22 Apr -3.9 05:07:42 10° SW 05:10:56 77° NW 05:14:13 10° NNE visible
23 Apr -2.6 04:19:48 34° SE 04:20:13 36° SE 04:23:16 10° ENE visible
24 Apr -2.0 05:04:34 14° W 05:05:52 18° NW 05:08:10 10° N visible
25 Apr -2.2 04:16:24 27° N 04:16:24 27° N 04:18:12 10° NNE visible
